Tracking 23099 objects as of 13-May-2021
HD Live streaming from Space Station
objects crossing your sky now

AEROCUBE 15A

Track AEROCUBE 15A now!
10-day predictions


NORAD ID: 45118
Int'l Code: 2019-071H
Perigee: 457.3 km
Apogee: 471.5 km
Inclination: 51.6 °
Period: 93.7 minutes
Semi major axis: 6835 km
RCS: Unknown
Launch date: November 2, 2019
Source: United States (US)
Launch site: WALLOPS ISLAND (WLPIS)
aabbcc
Your satellite tracking list
Your tracking list is empty




NASA's NSSDC Master Catalog

Two Line Element Set (TLE):
1 45118U 19071H   21132.67183595  .00004121  00000-0  12555-3 0  9999
2 45118  51.6410 209.3952 0010336 160.7558 199.3817 15.36230833 71687
Source of the keplerian elements: AFSPC